Location: Biltmore Gardens
(41.6070°N, 83.4666°W)
Time: 02:12:28
(UTC+00:00)

Vanguard 1 - Visible Passes

Search period start: 21 April 2021 00:00
Search period end: 01 May 2021 00:00
Orbit: 648 x 3834 km, 34.3° (Epoch: 20 April)

Date Brightness Start Highest point End Pass type
(mag) Time Alt. Az. Time Alt. Az. Time Alt. Az.
21 Apr 13.4 01:50:15 10° W 02:09:50 36° SW 02:25:09 13° SSE visible
22 Apr 13.5 02:12:28 10° W 02:30:17 29° SW 02:45:00 11° S visible
23 Apr 13.7 02:35:22 10° W 02:50:38 23° SW 03:04:11 10° S visible
24 Apr 13.6 00:28:30 10° W 00:48:18 44° SW 01:07:54 10° SSE visible
24 Apr 13.8 02:59:35 10° W 03:10:54 16° SW 03:21:17 10° SSW visible
25 Apr 13.7 00:50:14 10° W 01:09:04 37° SW 01:27:33 10° SSE visible
26 Apr 13.8 01:12:21 10° W 01:29:42 30° SW 01:46:42 10° S visible
27 Apr 13.9 01:35:07 10° W 01:50:14 23° SW 02:05:05 10° S visible
28 Apr 14.1 01:59:10 10° W 02:10:43 16° SW 02:22:06 10° SSW visible
29 Apr 14.2 02:28:27 10° WSW 02:31:10 10° SW 02:33:52 10° SW visible
